sat.trackr.live / text

‹ back to catalog

STARLINK-36558

NORAD 67499 · 2026-012G

PAYLOAD ACTIVE UNKNOWN

§ Identity

Operator
Country
US
Launch date
2026-01-18
Launch site
AFETR
Launch vehicle
Mass (kg)
RCS (m²)

Purposes: comms

External: N2YO · Heavens-Above · Gunter

§ Orbital elements

Epoch: 2026-09-19T10:44:37.385952Z

Period
94.27 min
Inclination
43.0008°
Eccentricity
0.0001050
Mean motion
15.27581343 rev/d
Perigee alt
482.3 km
Apogee alt
483.8 km
Semi-major
6,861.2 km
B*
3.4461e-4
RAAN
300.2573°
Arg perigee
252.0216°
Mean anomaly
108.0521°
Rev number
3,739

§ Raw data

STARLINK-365581 67499U 26012G   26262.44765493  .00009233  00000+0  34461-3 0  99932 67499  43.0008 300.2573 0001050 252.0216 108.0521 15.27581343 37394

JSON: /api/v1/satellites/67499 · /tle

For live sub-satellite position, see the globe view (requires WebGL).

§ Visibility from observer

Set your observer location to see the next 7 days of passes ≥ 10°. The values pass through the URL so the page stays shareable.

No JS? Fill the form by hand. The geolocation button needs JavaScript.